Year,Month,Day,Hour,Minute,Value (Times are PST for temperature in C)
2018,06,24,00,00,13.40
2018,06,24,00,01,13.40
2018,06,24,00,02,13.40
2018,06,24,00,03,13.40
2018,06,24,00,04,13.40
2018,06,24,00,05,13.40
2018,06,24,00,06,13.40
2018,06,24,00,07,13.40
2018,06,24,00,08,13.30
2018,06,24,00,09,13.30
2018,06,24,00,10,13.30
2018,06,24,00,11,13.30
2018,06,24,00,12,13.30
2018,06,24,00,13,13.30
2018,06,24,00,14,13.30
2018,06,24,00,15,13.30
2018,06,24,00,16,13.20
2018,06,24,00,17,13.20
2018,06,24,00,18,13.20
2018,06,24,00,19,13.20
2018,06,24,00,20,13.20
2018,06,24,00,21,13.20
2018,06,24,00,22,13.20
2018,06,24,00,23,13.20
2018,06,24,00,24,13.20
2018,06,24,00,25,13.20
2018,06,24,00,26,13.10
2018,06,24,00,27,13.10
2018,06,24,00,28,13.10
2018,06,24,00,29,13.10
2018,06,24,00,30,13.00
2018,06,24,00,31,13.00
2018,06,24,00,32,13.00
2018,06,24,00,33,13.00
2018,06,24,00,34,13.00
2018,06,24,00,35,13.00
2018,06,24,00,36,12.90
2018,06,24,00,37,12.90
2018,06,24,00,38,12.90
2018,06,24,00,39,12.90
2018,06,24,00,40,12.90
2018,06,24,00,41,12.90
2018,06,24,00,42,12.90
2018,06,24,00,43,12.90
2018,06,24,00,44,12.80
2018,06,24,00,45,12.80
2018,06,24,00,46,12.80
2018,06,24,00,47,12.70
2018,06,24,00,48,12.70
2018,06,24,00,49,12.70
2018,06,24,00,50,12.70
2018,06,24,00,51,12.70
2018,06,24,00,52,12.70
2018,06,24,00,53,12.60
2018,06,24,00,54,12.60
2018,06,24,00,55,12.60
2018,06,24,00,56,12.60
2018,06,24,00,57,12.60
2018,06,24,00,58,12.60
2018,06,24,00,59,12.60
2018,06,24,01,00,12.60
2018,06,24,01,01,12.60
2018,06,24,01,02,12.60
2018,06,24,01,03,12.50
2018,06,24,01,04,12.50
2018,06,24,01,05,12.50
2018,06,24,01,06,12.50
2018,06,24,01,07,12.50
2018,06,24,01,08,12.50
2018,06,24,01,09,12.40
2018,06,24,01,10,12.40
2018,06,24,01,11,12.40
2018,06,24,01,12,12.40
2018,06,24,01,13,12.40
2018,06,24,01,14,12.40
2018,06,24,01,15,12.40
2018,06,24,01,16,12.40
2018,06,24,01,17,12.40
2018,06,24,01,18,12.40
2018,06,24,01,19,12.30
2018,06,24,01,20,12.30
2018,06,24,01,21,12.30
2018,06,24,01,22,12.30
2018,06,24,01,23,12.30
2018,06,24,01,24,12.30
2018,06,24,01,25,12.30
2018,06,24,01,26,12.30
2018,06,24,01,27,12.30
2018,06,24,01,28,12.30
2018,06,24,01,29,12.30
2018,06,24,01,30,12.30
2018,06,24,01,31,12.30
2018,06,24,01,32,12.20
2018,06,24,01,33,12.20
2018,06,24,01,34,12.20
2018,06,24,01,35,12.20
2018,06,24,01,36,12.20
2018,06,24,01,37,12.20
2018,06,24,01,38,12.20
2018,06,24,01,39,12.20
2018,06,24,01,40,12.20
2018,06,24,01,41,12.20
2018,06,24,01,42,12.20
2018,06,24,01,43,12.10
2018,06,24,01,44,12.10
2018,06,24,01,45,12.10
2018,06,24,01,46,12.10
2018,06,24,01,47,12.10
2018,06,24,01,48,12.10
2018,06,24,01,49,12.10
2018,06,24,01,50,12.10
2018,06,24,01,51,12.10
2018,06,24,01,52,12.00
2018,06,24,01,53,12.00
2018,06,24,01,54,12.00
2018,06,24,01,55,11.90
2018,06,24,01,56,11.90
2018,06,24,01,57,11.90
2018,06,24,01,58,11.90
2018,06,24,01,59,11.90
2018,06,24,02,00,11.90
2018,06,24,02,01,11.90
2018,06,24,02,02,11.90
2018,06,24,02,03,11.90
2018,06,24,02,04,11.80
2018,06,24,02,05,11.80
2018,06,24,02,06,11.80
2018,06,24,02,07,11.80
2018,06,24,02,08,11.80
2018,06,24,02,09,11.70
2018,06,24,02,10,11.70
2018,06,24,02,11,11.70
2018,06,24,02,12,11.60
2018,06,24,02,13,11.60
2018,06,24,02,14,11.60
2018,06,24,02,15,11.50
2018,06,24,02,16,11.50
2018,06,24,02,17,11.50
2018,06,24,02,18,11.40
2018,06,24,02,19,11.40
2018,06,24,02,20,11.40
2018,06,24,02,21,11.40
2018,06,24,02,22,11.40
2018,06,24,02,23,11.40
2018,06,24,02,24,11.40
2018,06,24,02,25,11.40
2018,06,24,02,26,11.30
2018,06,24,02,27,11.30
2018,06,24,02,28,11.30
2018,06,24,02,29,11.30
2018,06,24,02,30,11.30
2018,06,24,02,31,11.30
2018,06,24,02,32,11.30
2018,06,24,02,33,11.40
2018,06,24,02,34,11.40
2018,06,24,02,35,11.40
2018,06,24,02,36,11.40
2018,06,24,02,37,11.40
2018,06,24,02,38,11.40
2018,06,24,02,39,11.40
2018,06,24,02,40,11.40
2018,06,24,02,41,11.40
2018,06,24,02,42,11.40
2018,06,24,02,43,11.30
2018,06,24,02,44,11.30
2018,06,24,02,45,11.30
2018,06,24,02,46,11.30
2018,06,24,02,47,11.30
2018,06,24,02,48,11.30
2018,06,24,02,49,11.30
2018,06,24,02,50,11.20
2018,06,24,02,51,11.20
2018,06,24,02,52,11.20
2018,06,24,02,53,11.20
2018,06,24,02,54,11.20
2018,06,24,02,55,11.20
2018,06,24,02,56,11.20
2018,06,24,02,57,11.20
2018,06,24,02,58,11.20
2018,06,24,02,59,11.20
2018,06,24,03,00,11.20
2018,06,24,03,01,11.20
2018,06,24,03,02,11.20
2018,06,24,03,03,11.20
2018,06,24,03,04,11.20
2018,06,24,03,05,11.20
2018,06,24,03,06,11.20
2018,06,24,03,07,11.20
2018,06,24,03,08,11.20
2018,06,24,03,09,11.20
2018,06,24,03,10,11.20
2018,06,24,03,11,11.20
2018,06,24,03,12,11.20
2018,06,24,03,13,11.20
2018,06,24,03,14,11.10
2018,06,24,03,15,11.10
2018,06,24,03,16,11.10
2018,06,24,03,17,11.10
2018,06,24,03,18,11.10
2018,06,24,03,19,11.10
2018,06,24,03,20,11.10
2018,06,24,03,21,11.10
2018,06,24,03,22,11.10
2018,06,24,03,23,11.10
2018,06,24,03,24,11.10
2018,06,24,03,25,11.10
2018,06,24,03,26,11.10
2018,06,24,03,27,11.10
2018,06,24,03,28,11.10
2018,06,24,03,29,11.10
2018,06,24,03,30,11.10
2018,06,24,03,31,11.10
2018,06,24,03,32,11.10
2018,06,24,03,33,11.10
2018,06,24,03,34,11.10
2018,06,24,03,35,11.10
2018,06,24,03,36,11.20
2018,06,24,03,37,11.20
2018,06,24,03,38,11.20
2018,06,24,03,39,11.20
2018,06,24,03,40,11.20
2018,06,24,03,41,11.20
2018,06,24,03,42,11.20
2018,06,24,03,43,11.20
2018,06,24,03,44,11.20
2018,06,24,03,45,11.10
2018,06,24,03,46,11.10
2018,06,24,03,47,11.10
2018,06,24,03,48,11.00
2018,06,24,03,49,11.00
2018,06,24,03,50,11.00
2018,06,24,03,51,11.00
2018,06,24,03,52,11.00
2018,06,24,03,53,10.90
2018,06,24,03,54,10.90
2018,06,24,03,55,10.90
2018,06,24,03,56,10.90
2018,06,24,03,57,10.90
2018,06,24,03,58,10.90
2018,06,24,03,59,10.90
2018,06,24,04,00,10.90
2018,06,24,04,01,10.90
2018,06,24,04,02,10.80
2018,06,24,04,03,10.80
2018,06,24,04,04,10.80
2018,06,24,04,05,10.80
2018,06,24,04,06,10.80
2018,06,24,04,07,10.80
2018,06,24,04,08,10.80
2018,06,24,04,09,10.80
2018,06,24,04,10,10.80
2018,06,24,04,11,10.80
2018,06,24,04,12,10.80
2018,06,24,04,13,10.80
2018,06,24,04,14,10.80
2018,06,24,04,15,10.80
2018,06,24,04,16,10.80
2018,06,24,04,17,10.80
2018,06,24,04,18,10.80
2018,06,24,04,19,10.80
2018,06,24,04,20,10.80
2018,06,24,04,21,10.80
2018,06,24,04,22,10.80
2018,06,24,04,23,10.70
2018,06,24,04,24,10.70
2018,06,24,04,25,10.70
2018,06,24,04,26,10.70
2018,06,24,04,27,10.70
2018,06,24,04,28,10.70
2018,06,24,04,29,10.70
2018,06,24,04,30,10.70
2018,06,24,04,31,10.70
2018,06,24,04,32,10.70
2018,06,24,04,33,10.70
2018,06,24,04,34,10.70
2018,06,24,04,35,10.60
2018,06,24,04,36,10.60
2018,06,24,04,37,10.60
2018,06,24,04,38,10.60
2018,06,24,04,39,10.50
2018,06,24,04,40,10.50
2018,06,24,04,41,10.50
2018,06,24,04,42,10.40
2018,06,24,04,43,10.40
2018,06,24,04,44,10.40
2018,06,24,04,45,10.40
2018,06,24,04,46,10.40
2018,06,24,04,47,10.40
2018,06,24,04,48,10.40
2018,06,24,04,49,10.40
2018,06,24,04,50,10.40
2018,06,24,04,51,10.40
2018,06,24,04,52,10.40
2018,06,24,04,53,10.40
2018,06,24,04,54,10.40
2018,06,24,04,55,10.40
2018,06,24,04,56,10.40
2018,06,24,04,57,10.40
2018,06,24,04,58,10.40
2018,06,24,04,59,10.40
2018,06,24,05,00,10.40
2018,06,24,05,01,10.40
2018,06,24,05,02,10.40
2018,06,24,05,03,10.40
2018,06,24,05,04,10.40
2018,06,24,05,05,10.50
2018,06,24,05,06,10.50
2018,06,24,05,07,10.40
2018,06,24,05,08,10.40
2018,06,24,05,09,10.40
2018,06,24,05,10,10.40
2018,06,24,05,11,10.40
2018,06,24,05,12,10.40
2018,06,24,05,13,10.40
2018,06,24,05,14,10.50
2018,06,24,05,15,10.50
2018,06,24,05,16,10.50
2018,06,24,05,17,10.50
2018,06,24,05,18,10.50
2018,06,24,05,19,10.50
2018,06,24,05,20,10.50
2018,06,24,05,21,10.50
2018,06,24,05,22,10.50
2018,06,24,05,23,10.50
2018,06,24,05,24,10.50
2018,06,24,05,25,10.40
2018,06,24,05,26,10.40
2018,06,24,05,27,10.40
2018,06,24,05,28,10.40
2018,06,24,05,29,10.40
2018,06,24,05,30,10.30
2018,06,24,05,31,10.30
2018,06,24,05,32,10.30
2018,06,24,05,33,10.30
2018,06,24,05,34,10.20
2018,06,24,05,35,10.20
2018,06,24,05,36,10.20
2018,06,24,05,37,10.20
2018,06,24,05,38,10.20
2018,06,24,05,39,10.30
2018,06,24,05,40,10.30
2018,06,24,05,41,10.30
2018,06,24,05,42,10.30
2018,06,24,05,43,10.30
2018,06,24,05,44,10.30
2018,06,24,05,45,10.30
2018,06,24,05,46,10.30
2018,06,24,05,47,10.30
2018,06,24,05,48,10.30
2018,06,24,05,49,10.30
2018,06,24,05,50,10.30
2018,06,24,05,51,10.30
2018,06,24,05,52,10.30
2018,06,24,05,53,10.30
2018,06,24,05,54,10.30
2018,06,24,05,55,10.30
2018,06,24,05,56,10.30
2018,06,24,05,57,10.30
2018,06,24,05,58,10.30
2018,06,24,05,59,10.30
2018,06,24,06,00,10.40
2018,06,24,06,01,10.40
2018,06,24,06,02,10.40
2018,06,24,06,03,10.40
2018,06,24,06,04,10.40
2018,06,24,06,05,10.40
2018,06,24,06,06,10.40
2018,06,24,06,07,10.40
2018,06,24,06,08,10.40
2018,06,24,06,09,10.40
2018,06,24,06,10,10.40
2018,06,24,06,11,10.40
2018,06,24,06,12,10.40
2018,06,24,06,13,10.40
2018,06,24,06,14,10.50
2018,06,24,06,15,10.50
2018,06,24,06,16,10.50
2018,06,24,06,17,10.50
2018,06,24,06,18,10.60
2018,06,24,06,19,10.60
2018,06,24,06,20,10.60
2018,06,24,06,21,10.60
2018,06,24,06,22,10.60
2018,06,24,06,23,10.60
2018,06,24,06,24,10.60
2018,06,24,06,25,10.60
2018,06,24,06,26,10.60
2018,06,24,06,27,10.60
2018,06,24,06,28,10.70
2018,06,24,06,29,10.70
2018,06,24,06,30,10.70
2018,06,24,06,31,10.70
2018,06,24,06,32,10.70
2018,06,24,06,33,10.70
2018,06,24,06,34,10.80
2018,06,24,06,35,10.80
2018,06,24,06,36,10.80
2018,06,24,06,37,10.90
2018,06,24,06,38,10.90
2018,06,24,06,39,11.00
2018,06,24,06,40,11.00
2018,06,24,06,41,11.10
2018,06,24,06,42,11.10
2018,06,24,06,43,11.10
2018,06,24,06,44,11.20
2018,06,24,06,45,11.20
2018,06,24,06,46,11.20
2018,06,24,06,47,11.20
2018,06,24,06,48,11.20
2018,06,24,06,49,11.30
2018,06,24,06,50,11.30
2018,06,24,06,51,11.30
2018,06,24,06,52,11.30
2018,06,24,06,53,11.30
2018,06,24,06,54,11.30
2018,06,24,06,55,11.40
2018,06,24,06,56,11.40
2018,06,24,06,57,11.50
2018,06,24,06,58,11.50
2018,06,24,06,59,11.60
2018,06,24,07,00,11.60
2018,06,24,07,01,11.60
2018,06,24,07,02,11.70
2018,06,24,07,03,11.70
2018,06,24,07,04,11.70
2018,06,24,07,05,11.70
2018,06,24,07,06,11.70
2018,06,24,07,07,11.70
2018,06,24,07,08,11.70
2018,06,24,07,09,11.80
2018,06,24,07,10,11.80
2018,06,24,07,11,11.80
2018,06,24,07,12,11.80
2018,06,24,07,13,11.90
2018,06,24,07,14,11.90
2018,06,24,07,15,12.00
2018,06,24,07,16,12.00
2018,06,24,07,17,12.10
2018,06,24,07,18,12.10
2018,06,24,07,19,12.10
2018,06,24,07,20,12.10
2018,06,24,07,21,12.20
2018,06,24,07,22,12.20
2018,06,24,07,23,12.20
2018,06,24,07,24,12.30
2018,06,24,07,25,12.40
2018,06,24,07,26,12.40
2018,06,24,07,27,12.50
2018,06,24,07,28,12.60
2018,06,24,07,29,12.60
2018,06,24,07,30,12.70
2018,06,24,07,31,12.70
2018,06,24,07,32,12.70
2018,06,24,07,33,12.70
2018,06,24,07,34,12.70
2018,06,24,07,35,12.80
2018,06,24,07,36,12.80
2018,06,24,07,37,12.80
2018,06,24,07,38,12.80
2018,06,24,07,39,12.90
2018,06,24,07,40,13.00
2018,06,24,07,41,13.00
2018,06,24,07,42,13.10
2018,06,24,07,43,13.20
2018,06,24,07,44,13.20
2018,06,24,07,45,13.30
2018,06,24,07,46,13.30
2018,06,24,07,47,13.40
2018,06,24,07,48,13.50
2018,06,24,07,49,13.60
2018,06,24,07,50,13.60
2018,06,24,07,51,13.60
2018,06,24,07,52,13.70
2018,06,24,07,53,13.70
2018,06,24,07,54,13.70
2018,06,24,07,55,13.60
2018,06,24,07,56,13.60
2018,06,24,07,57,13.60
2018,06,24,07,58,13.60
2018,06,24,07,59,13.60
2018,06,24,08,00,13.60
2018,06,24,08,01,13.70
2018,06,24,08,02,13.70
2018,06,24,08,03,13.70
2018,06,24,08,04,13.80
2018,06,24,08,05,13.80
2018,06,24,08,06,13.90
2018,06,24,08,07,13.90
2018,06,24,08,08,14.00
2018,06,24,08,09,14.10
2018,06,24,08,10,14.10
2018,06,24,08,11,14.20
2018,06,24,08,12,14.20
2018,06,24,08,13,14.20
2018,06,24,08,14,14.20
2018,06,24,08,15,14.20
2018,06,24,08,16,14.20
2018,06,24,08,17,14.30
2018,06,24,08,18,14.40
2018,06,24,08,19,14.40
2018,06,24,08,20,14.30
2018,06,24,08,21,14.30
2018,06,24,08,22,14.30
2018,06,24,08,23,14.40
2018,06,24,08,24,14.40
2018,06,24,08,25,14.40
2018,06,24,08,26,14.40
2018,06,24,08,27,14.40
2018,06,24,08,28,14.40
2018,06,24,08,29,14.50
2018,06,24,08,30,14.50
2018,06,24,08,31,14.50
2018,06,24,08,32,14.60
2018,06,24,08,33,14.50
2018,06,24,08,34,14.50
2018,06,24,08,35,14.60
2018,06,24,08,36,14.60
2018,06,24,08,37,14.60
2018,06,24,08,38,14.70
2018,06,24,08,39,14.70
2018,06,24,08,40,14.70
2018,06,24,08,41,14.70
2018,06,24,08,42,14.80
2018,06,24,08,43,14.80
2018,06,24,08,44,14.90
2018,06,24,08,45,14.90
2018,06,24,08,46,15.00
2018,06,24,08,47,15.10
2018,06,24,08,48,15.10
2018,06,24,08,49,15.10
2018,06,24,08,50,15.20
2018,06,24,08,51,15.20
2018,06,24,08,52,15.30
2018,06,24,08,53,15.40
2018,06,24,08,54,15.50
2018,06,24,08,55,15.60
2018,06,24,08,56,15.70
2018,06,24,08,57,15.70
2018,06,24,08,58,15.80
2018,06,24,08,59,15.80
2018,06,24,09,00,15.80
2018,06,24,09,01,15.70
2018,06,24,09,02,15.70
2018,06,24,09,03,15.70
2018,06,24,09,04,15.70
2018,06,24,09,05,15.70
2018,06,24,09,06,15.80
2018,06,24,09,07,15.80
2018,06,24,09,08,15.80
2018,06,24,09,09,15.80
2018,06,24,09,10,15.80
2018,06,24,09,11,15.80
2018,06,24,09,12,15.80
2018,06,24,09,13,15.70
2018,06,24,09,14,15.70
2018,06,24,09,15,15.60
2018,06,24,09,16,15.60
2018,06,24,09,17,15.50
2018,06,24,09,18,15.50
2018,06,24,09,19,15.50
2018,06,24,09,20,15.50
2018,06,24,09,21,15.50
2018,06,24,09,22,15.40
2018,06,24,09,23,15.40
2018,06,24,09,24,15.30
2018,06,24,09,25,15.30
2018,06,24,09,26,15.30
2018,06,24,09,27,15.40
2018,06,24,09,28,15.40
2018,06,24,09,29,15.30
2018,06,24,09,30,15.20
2018,06,24,09,31,15.10
2018,06,24,09,32,15.00
2018,06,24,09,33,15.00
2018,06,24,09,34,14.90
2018,06,24,09,35,14.90
2018,06,24,09,36,14.90
2018,06,24,09,37,14.90
2018,06,24,09,38,14.90
2018,06,24,09,39,14.80
2018,06,24,09,40,14.70
2018,06,24,09,41,14.60
2018,06,24,09,42,14.60
2018,06,24,09,43,14.60
2018,06,24,09,44,14.70
2018,06,24,09,45,14.60
2018,06,24,09,46,14.60
2018,06,24,09,47,14.60
2018,06,24,09,48,14.70
2018,06,24,09,49,14.70
2018,06,24,09,50,14.80
2018,06,24,09,51,14.80
2018,06,24,09,52,14.80
2018,06,24,09,53,14.80
2018,06,24,09,54,14.80
2018,06,24,09,55,14.90
2018,06,24,09,56,15.00
2018,06,24,09,57,15.00
2018,06,24,09,58,15.10
2018,06,24,09,59,15.10
2018,06,24,10,00,15.10
2018,06,24,10,01,15.10
2018,06,24,10,02,15.10
2018,06,24,10,03,15.10
2018,06,24,10,04,15.10
2018,06,24,10,05,15.20
2018,06,24,10,06,15.10
2018,06,24,10,07,15.10
2018,06,24,10,08,15.20
2018,06,24,10,09,15.30
2018,06,24,10,10,15.40
2018,06,24,10,11,15.40
2018,06,24,10,12,15.40
2018,06,24,10,13,15.50
2018,06,24,10,14,15.50
2018,06,24,10,15,15.50
2018,06,24,10,16,15.60
2018,06,24,10,17,15.70
2018,06,24,10,18,15.70
2018,06,24,10,19,15.80
2018,06,24,10,20,15.80
2018,06,24,10,21,15.90
2018,06,24,10,22,15.90
2018,06,24,10,23,15.90
2018,06,24,10,24,16.00
2018,06,24,10,25,16.00
2018,06,24,10,26,16.00
2018,06,24,10,27,16.00
2018,06,24,10,28,16.00
2018,06,24,10,29,15.90
2018,06,24,10,30,15.90
2018,06,24,10,31,16.00
2018,06,24,10,32,16.00
2018,06,24,10,33,16.10
2018,06,24,10,34,16.10
2018,06,24,10,35,16.10
2018,06,24,10,36,16.20
2018,06,24,10,37,16.20
2018,06,24,10,38,16.20
2018,06,24,10,39,16.30
2018,06,24,10,40,16.30
2018,06,24,10,41,16.30
2018,06,24,10,42,16.40
2018,06,24,10,43,16.40
2018,06,24,10,44,16.50
2018,06,24,10,45,16.50
2018,06,24,10,46,16.50
2018,06,24,10,47,16.60
2018,06,24,10,48,16.60
2018,06,24,10,49,16.60
2018,06,24,10,50,16.70
2018,06,24,10,51,16.60
2018,06,24,10,52,16.60
2018,06,24,10,53,16.60
2018,06,24,10,54,16.70
2018,06,24,10,55,16.70
2018,06,24,10,56,16.70
2018,06,24,10,57,16.80
2018,06,24,10,58,16.70
2018,06,24,10,59,16.70
2018,06,24,11,00,16.70
2018,06,24,11,01,16.70
2018,06,24,11,02,16.60
2018,06,24,11,03,16.60
2018,06,24,11,04,16.50
2018,06,24,11,05,16.50
2018,06,24,11,06,16.50
2018,06,24,11,07,16.60
2018,06,24,11,08,16.60
2018,06,24,11,09,16.60
2018,06,24,11,10,16.60
2018,06,24,11,11,16.60
2018,06,24,11,12,16.60
2018,06,24,11,13,16.60
2018,06,24,11,14,16.60
2018,06,24,11,15,16.60
2018,06,24,11,16,16.60
2018,06,24,11,17,16.70
2018,06,24,11,18,16.80
2018,06,24,11,19,16.80
2018,06,24,11,20,16.80
2018,06,24,11,21,16.80
2018,06,24,11,22,16.80
2018,06,24,11,23,16.80
2018,06,24,11,24,16.80
2018,06,24,11,25,16.80
2018,06,24,11,26,16.80
2018,06,24,11,27,16.80
2018,06,24,11,28,16.90
2018,06,24,11,29,16.90
2018,06,24,11,30,16.90
2018,06,24,11,31,17.00
2018,06,24,11,32,17.10
2018,06,24,11,33,17.20
2018,06,24,11,34,17.20
2018,06,24,11,35,17.20
2018,06,24,11,36,17.20
2018,06,24,11,37,17.20
2018,06,24,11,38,17.20
2018,06,24,11,39,17.30
2018,06,24,11,40,17.30
2018,06,24,11,41,17.20
2018,06,24,11,42,17.20
2018,06,24,11,43,17.10
2018,06,24,11,44,17.00
2018,06,24,11,45,16.90
2018,06,24,11,46,16.90
2018,06,24,11,47,16.80
2018,06,24,11,48,16.70
2018,06,24,11,49,16.60
2018,06,24,11,50,16.50
2018,06,24,11,51,16.50
2018,06,24,11,52,16.30
2018,06,24,11,53,16.30
2018,06,24,11,54,16.40
2018,06,24,11,55,16.30
2018,06,24,11,56,16.30
2018,06,24,11,57,16.30
2018,06,24,11,58,16.30
2018,06,24,11,59,16.30
2018,06,24,12,00,16.30
2018,06,24,12,01,16.40
2018,06,24,12,02,16.40
2018,06,24,12,03,16.40
2018,06,24,12,04,16.30
2018,06,24,12,05,16.30
2018,06,24,12,06,16.20
2018,06,24,12,07,16.20
2018,06,24,12,08,16.20
2018,06,24,12,09,16.20
2018,06,24,12,10,16.20
2018,06,24,12,11,16.20
2018,06,24,12,12,16.10
2018,06,24,12,13,16.10
2018,06,24,12,14,16.10
2018,06,24,12,15,16.30
2018,06,24,12,16,16.40
2018,06,24,12,17,16.50
2018,06,24,12,18,16.50
2018,06,24,12,19,16.50
2018,06,24,12,20,16.50
2018,06,24,12,21,16.50
2018,06,24,12,22,16.50
2018,06,24,12,23,16.50
2018,06,24,12,24,16.50
2018,06,24,12,25,16.50
2018,06,24,12,26,16.60
2018,06,24,12,27,16.70
2018,06,24,12,28,16.80
2018,06,24,12,29,16.80
2018,06,24,12,30,16.90
2018,06,24,12,31,16.90
2018,06,24,12,32,17.00
2018,06,24,12,33,17.00
2018,06,24,12,34,17.00
2018,06,24,12,35,17.00
2018,06,24,12,36,17.00
2018,06,24,12,37,17.00
2018,06,24,12,38,17.00
2018,06,24,12,39,17.10
2018,06,24,12,40,17.10
2018,06,24,12,41,17.10
2018,06,24,12,42,17.10
2018,06,24,12,43,17.10
2018,06,24,12,44,17.20
2018,06,24,12,45,17.20
2018,06,24,12,46,17.20
2018,06,24,12,47,17.20
2018,06,24,12,48,17.30
2018,06,24,12,49,17.30
2018,06,24,12,50,17.40
2018,06,24,12,51,17.40
2018,06,24,12,52,17.40
2018,06,24,12,53,17.50
2018,06,24,12,54,17.50
2018,06,24,12,55,17.60
2018,06,24,12,56,17.60
2018,06,24,12,57,17.70
2018,06,24,12,58,17.70
2018,06,24,12,59,17.80
2018,06,24,13,00,17.90
2018,06,24,13,01,17.90
2018,06,24,13,02,18.00
2018,06,24,13,03,18.10
2018,06,24,13,04,18.10
2018,06,24,13,05,18.10
2018,06,24,13,06,18.10
2018,06,24,13,07,18.10
2018,06,24,13,08,18.10
2018,06,24,13,09,18.10
2018,06,24,13,10,18.10
2018,06,24,13,11,18.10
2018,06,24,13,12,18.20
2018,06,24,13,13,18.20
2018,06,24,13,14,18.10
2018,06,24,13,15,18.00
2018,06,24,13,16,17.90
2018,06,24,13,17,17.80
2018,06,24,13,18,17.70
2018,06,24,13,19,17.60
2018,06,24,13,20,17.50
2018,06,24,13,21,17.30
2018,06,24,13,22,17.30
2018,06,24,13,23,17.20
2018,06,24,13,24,17.20
2018,06,24,13,25,17.20
2018,06,24,13,26,17.20
2018,06,24,13,27,17.20
2018,06,24,13,28,17.20
2018,06,24,13,29,17.20
2018,06,24,13,30,17.20
2018,06,24,13,31,17.30
2018,06,24,13,32,17.30
2018,06,24,13,33,17.30
2018,06,24,13,34,17.40
2018,06,24,13,35,17.50
2018,06,24,13,36,17.50
2018,06,24,13,37,17.60
2018,06,24,13,38,17.60
2018,06,24,13,39,17.70
2018,06,24,13,40,17.80
2018,06,24,13,41,17.80
2018,06,24,13,42,17.90
2018,06,24,13,43,17.90
2018,06,24,13,44,17.90
2018,06,24,13,45,18.00
2018,06,24,13,46,18.00
2018,06,24,13,47,18.00
2018,06,24,13,48,18.10
2018,06,24,13,49,18.10
2018,06,24,13,50,18.10
2018,06,24,13,51,18.20
2018,06,24,13,52,18.30
2018,06,24,13,53,18.40
2018,06,24,13,54,18.30
2018,06,24,13,55,18.30
2018,06,24,13,56,18.30
2018,06,24,13,57,18.20
2018,06,24,13,58,18.20
2018,06,24,13,59,18.30
2018,06,24,14,00,18.30
2018,06,24,14,01,18.40
2018,06,24,14,02,18.50
2018,06,24,14,03,18.50
2018,06,24,14,04,18.60
2018,06,24,14,05,18.60
2018,06,24,14,06,18.60
2018,06,24,14,07,18.70
2018,06,24,14,08,18.70
2018,06,24,14,09,18.80
2018,06,24,14,10,18.90
2018,06,24,14,11,19.00
2018,06,24,14,12,19.10
2018,06,24,14,13,19.10
2018,06,24,14,14,19.20
2018,06,24,14,15,19.20
2018,06,24,14,16,19.20
2018,06,24,14,17,19.20
2018,06,24,14,18,19.20
2018,06,24,14,19,19.30
2018,06,24,14,20,19.40
2018,06,24,14,21,19.40
2018,06,24,14,22,19.50
2018,06,24,14,23,19.60
2018,06,24,14,24,19.70
2018,06,24,14,25,19.80
2018,06,24,14,26,19.80
2018,06,24,14,27,19.90
2018,06,24,14,28,19.90
2018,06,24,14,29,19.90
2018,06,24,14,30,20.00
2018,06,24,14,31,20.00
2018,06,24,14,32,20.10
2018,06,24,14,33,20.10
2018,06,24,14,34,20.10
2018,06,24,14,35,20.10
2018,06,24,14,36,20.20
2018,06,24,14,37,20.30
2018,06,24,14,38,20.30
2018,06,24,14,39,20.30
2018,06,24,14,40,20.40
2018,06,24,14,41,20.40
2018,06,24,14,42,20.50
2018,06,24,14,43,20.50
2018,06,24,14,44,20.60
2018,06,24,14,45,20.60
2018,06,24,14,46,20.60
2018,06,24,14,47,20.60
2018,06,24,14,48,20.60
2018,06,24,14,49,20.60
2018,06,24,14,50,20.70
2018,06,24,14,51,20.80
2018,06,24,14,52,20.80
2018,06,24,14,53,20.90
2018,06,24,14,54,21.00
2018,06,24,14,55,21.00
2018,06,24,14,56,21.10
2018,06,24,14,57,21.20
2018,06,24,14,58,21.20
2018,06,24,14,59,21.20
2018,06,24,15,00,21.30
2018,06,24,15,01,21.40
2018,06,24,15,02,21.50
2018,06,24,15,03,21.60
2018,06,24,15,04,21.70
2018,06,24,15,05,21.80
2018,06,24,15,06,21.80
2018,06,24,15,07,21.80
2018,06,24,15,08,21.80
2018,06,24,15,09,21.70
2018,06,24,15,10,21.60
2018,06,24,15,11,21.60
2018,06,24,15,12,21.40
2018,06,24,15,13,21.30
2018,06,24,15,14,21.10
2018,06,24,15,15,21.00
2018,06,24,15,16,20.80
2018,06,24,15,17,20.80
2018,06,24,15,18,20.70
2018,06,24,15,19,20.60
2018,06,24,15,20,20.60
2018,06,24,15,21,20.50
2018,06,24,15,22,20.60
2018,06,24,15,23,20.60
2018,06,24,15,24,20.70
2018,06,24,15,25,20.70
2018,06,24,15,26,20.80
2018,06,24,15,27,20.90
2018,06,24,15,28,20.90
2018,06,24,15,29,20.80
2018,06,24,15,30,20.80
2018,06,24,15,31,20.80
2018,06,24,15,32,20.80
2018,06,24,15,33,20.80
2018,06,24,15,34,20.80
2018,06,24,15,35,20.90
2018,06,24,15,36,20.90
2018,06,24,15,37,20.90
2018,06,24,15,38,20.90
2018,06,24,15,39,20.80
2018,06,24,15,40,20.80
2018,06,24,15,41,20.80
2018,06,24,15,42,20.80
2018,06,24,15,43,20.90
2018,06,24,15,44,20.90
2018,06,24,15,45,20.80
2018,06,24,15,46,20.80
2018,06,24,15,47,20.80
2018,06,24,15,48,20.80
2018,06,24,15,49,20.80
2018,06,24,15,50,20.80
2018,06,24,15,51,20.80
2018,06,24,15,52,20.90
2018,06,24,15,53,20.90
2018,06,24,15,54,21.10
2018,06,24,15,55,21.20
2018,06,24,15,56,21.40
2018,06,24,15,57,21.50
2018,06,24,15,58,21.70
2018,06,24,15,59,21.90
2018,06,24,16,00,22.00
2018,06,24,16,01,22.10
2018,06,24,16,02,22.20
2018,06,24,16,03,22.30
2018,06,24,16,04,22.30
2018,06,24,16,05,22.30
2018,06,24,16,06,22.30
2018,06,24,16,07,22.20
2018,06,24,16,08,22.20
2018,06,24,16,09,22.20
2018,06,24,16,10,22.20
2018,06,24,16,11,22.20
2018,06,24,16,12,22.20
2018,06,24,16,13,22.20
2018,06,24,16,14,22.20
2018,06,24,16,15,22.30
2018,06,24,16,16,22.30
2018,06,24,16,17,22.40
2018,06,24,16,18,22.40
2018,06,24,16,19,22.50
2018,06,24,16,20,22.60
2018,06,24,16,21,22.60
2018,06,24,16,22,22.60
2018,06,24,16,23,22.60
2018,06,24,16,24,22.60
2018,06,24,16,25,22.60
2018,06,24,16,26,22.60
2018,06,24,16,27,22.60
2018,06,24,16,28,22.50
2018,06,24,16,29,22.40
2018,06,24,16,30,22.40
2018,06,24,16,31,22.30
2018,06,24,16,32,22.30
2018,06,24,16,33,22.20
2018,06,24,16,34,22.20
2018,06,24,16,35,22.20
2018,06,24,16,36,22.10
2018,06,24,16,37,22.10
2018,06,24,16,38,22.10
2018,06,24,16,39,22.10
2018,06,24,16,40,22.20
2018,06,24,16,41,22.20
2018,06,24,16,42,22.20
2018,06,24,16,43,22.20
2018,06,24,16,44,22.20
2018,06,24,16,45,22.20
2018,06,24,16,46,22.20
2018,06,24,16,47,22.10
2018,06,24,16,48,22.10
2018,06,24,16,49,22.10
2018,06,24,16,50,22.10
2018,06,24,16,51,22.10
2018,06,24,16,52,22.10
2018,06,24,16,53,22.10
2018,06,24,16,54,22.20
2018,06,24,16,55,22.20
2018,06,24,16,56,22.20
2018,06,24,16,57,22.20
2018,06,24,16,58,22.30
2018,06,24,16,59,22.30
2018,06,24,17,00,22.30
2018,06,24,17,01,22.20
2018,06,24,17,02,22.20
2018,06,24,17,03,22.20
2018,06,24,17,04,22.20
2018,06,24,17,05,22.10
2018,06,24,17,06,22.10
2018,06,24,17,07,22.10
2018,06,24,17,08,22.10
2018,06,24,17,09,22.00
2018,06,24,17,10,22.00
2018,06,24,17,11,22.00
2018,06,24,17,12,22.00
2018,06,24,17,13,22.00
2018,06,24,17,14,22.00
2018,06,24,17,15,22.00
2018,06,24,17,16,22.10
2018,06,24,17,17,22.10
2018,06,24,17,18,22.20
2018,06,24,17,19,22.20